{"data":{"norad_id":45395,"intl_designator":"2020-019AM","name":"STARLINK-1297","alt_names":[],"object_type":"PAYLOAD","status":"ACTIVE","operator":null,"country":"US","launch_date":"2020-03-18","launch_site_code":"AFETR","launch_vehicle":null,"mission":null,"orbit_class":"UNKNOWN","rcs_meters":null,"size_class":null,"mass_kg":null,"dimensions":null,"purposes":["comms"],"wikipedia_slug":null,"has_3d_model":false,"image_url":null,"decayed_at":null,"tle_current":{"epoch":"2026-09-20T06:00:02.000160Z","epoch_age_seconds":36111,"freshness":"FRESH","line1":"1 45395U 20019AM  26263.25002315  .00172689  22493-4  47660-3 0  9998","line2":"2 45395  53.0317 245.5610 0006672  56.4278  87.2229 15.93546814  6027","mean_motion":15.93546814,"eccentricity":0.0006672,"inclination_deg":53.0317,"raan_deg":245.561,"arg_perigee_deg":56.4278,"mean_anomaly_deg":87.2229,"bstar":0.0004766,"rev_number":602,"period_min":90.364461674359,"perigee_km":287.91605312436,"apogee_km":296.81717314573,"semimajor_km":6670.503613135,"source":"CELESTRAK","updated_at":"2026-09-20T09:00:38.233180Z"}}}